Weather History for Mosby, MO

Change the Weather History Date:

Sunday, January 13, 2013

  Actual Average (KMKC) Record (KMKC)
Temperature  
Mean Temperature 20 °F -  
Max Temperature 26 °F 36 °F 52 °F (2002)
Min Temperature 14 °F 21 °F 1 °F (2011)
Degree Days  
Heating Degree Days 45    
Moisture  
Dew Point 11 °F    
Average Humidity 67    
Maximum Humidity 93    
Minimum Humidity 51    
Precipitation  
Precipitation 0.00 in - - ()
Sea Level Pressure  
Sea Level Pressure 30.22 in    
Wind  
Wind Speed 10 mph (NW)    
Max Wind Speed 18 mph    
Max Gust Speed 24 mph    
Visibility 10 miles    
Events Snow    
Averages and records for this station are not official NWS values.
T = Trace of Precipitation, MM = Missing Value Source: NWS Daily Summary

Daily Weather History Graph

Daily Weather History Graph

Search for Another Location

Airport:

Trip Planner

Search our weather history database for the weather conditions in past years. The results will help you decide how hot, cold, wet, or windy it might be!

Date:

Astronomy

Jan. 13, 2013 Rise Set
Actual Time 7:36 AM CST 5:16 PM CST
Civil Twilight 7:06 AM CST 5:45 PM CST
Nautical Twilight 6:33 AM CST 6:19 PM CST
Astronomical Twilight 6:01 AM CST 6:51 PM CST
Moon 8:36 AM CST (1/13) 7:54 PM CST (1/13)
Length of Visible Light 10h 39m
Length of Day
9h 40m
Waxing Crescent, 5% of the Moon is Illuminated
Jan 13
Waxing Crescent
Jan 18
First Quarter
Jan 26
Full
Feb 3
Last Quarter
Feb 10
New

Hourly Weather History & Observations

Time (CST) Temp. Windchill Dew Point Humidity Pressure Visibility Wind Dir Wind Speed Gust Speed Precip Events Conditions
12:15 AM 23.0 °F 11.7 °F 14.0 °F 68% 30.08 in 10.0 mi NW 11.5 mph - N/A   Scattered Clouds
12:35 AM 23.0 °F 8.7 °F 14.0 °F 68% 30.07 in 10.0 mi NNW 18.4 mph - N/A   Overcast
12:55 AM 23.0 °F 10.6 °F 14.0 °F 68% 30.07 in 10.0 mi NNW 13.8 mph - N/A   Mostly Cloudy
1:15 AM 21.2 °F 9.5 °F 12.2 °F 68% 30.08 in 10.0 mi NNW 11.5 mph - N/A   Scattered Clouds
1:35 AM 21.2 °F 8.3 °F 12.2 °F 68% 30.09 in 10.0 mi NNW 13.8 mph 24.2 mph N/A   Scattered Clouds
1:55 AM 21.2 °F 11.7 °F 12.2 °F 68% 30.12 in 10.0 mi NNW 8.1 mph - N/A   Scattered Clouds
2:15 AM 21.2 °F 11.7 °F 12.2 °F 68% 30.13 in 10.0 mi NNW 8.1 mph - N/A   Scattered Clouds
2:35 AM 19.4 °F 9.5 °F 10.4 °F 68% 30.12 in 10.0 mi NNW 8.1 mph - N/A   Scattered Clouds
2:55 AM 19.4 °F 10.4 °F 12.2 °F 74% 30.13 in 10.0 mi NW 6.9 mph - N/A   Scattered Clouds
3:15 AM 19.4 °F 8.6 °F 10.4 °F 68% 30.14 in 10.0 mi NNW 9.2 mph - N/A   Scattered Clouds
3:35 AM 19.4 °F 7.2 °F 10.4 °F 68% 30.12 in 10.0 mi NNW 11.5 mph 16.1 mph N/A   Clear
4:15 AM 17.6 °F 5.7 °F 10.4 °F 73% 30.12 in 10.0 mi NNW 10.4 mph - N/A   Clear
4:35 AM 17.6 °F 4.3 °F 8.6 °F 68% 30.13 in 10.0 mi NW 12.7 mph 17.3 mph N/A   Clear
4:55 AM 17.6 °F 7.3 °F 8.6 °F 68% 30.13 in 10.0 mi NW 8.1 mph - N/A   Clear
5:15 AM 17.6 °F 5.7 °F 8.6 °F 68% 30.14 in 10.0 mi NW 10.4 mph - N/A   Clear
5:35 AM 17.6 °F 7.3 °F 10.4 °F 73% 30.15 in 10.0 mi NW 8.1 mph - N/A   Clear
5:55 AM 17.6 °F 8.2 °F 8.6 °F 68% 30.18 in 10.0 mi NNW 6.9 mph - N/A   Clear
6:15 AM 17.6 °F 6.4 °F 10.4 °F 73% 30.17 in 10.0 mi North 9.2 mph - N/A   Mostly Cloudy
6:35 AM 17.6 °F 7.3 °F 10.4 °F 73% 30.19 in 10.0 mi North 8.1 mph - N/A   Overcast
6:55 AM 17.6 °F 8.2 °F 8.6 °F 68% 30.20 in 10.0 mi North 6.9 mph - N/A   Overcast
7:15 AM 17.6 °F 8.2 °F 8.6 °F 68% 30.21 in 10.0 mi NNW 6.9 mph - N/A   Overcast
7:35 AM 17.6 °F 6.4 °F 8.6 °F 68% 30.21 in 10.0 mi NNW 9.2 mph - N/A   Overcast
7:55 AM 15.8 °F 2.7 °F 8.6 °F 73% 30.21 in 10.0 mi NW 11.5 mph - N/A   Overcast
8:15 AM 15.8 °F 5.1 °F 8.6 °F 73% 30.21 in 10.0 mi NW 8.1 mph - N/A   Scattered Clouds
8:35 AM 15.8 °F 5.1 °F 8.6 °F 73% 30.21 in 10.0 mi NW 8.1 mph - N/A   Clear
8:55 AM 17.6 °F 4.3 °F 8.6 °F 68% 30.22 in 10.0 mi NW 12.7 mph - N/A Snow Light Snow
9:15 AM 17.6 °F 4.3 °F 8.6 °F 68% 30.22 in 10.0 mi NW 12.7 mph - N/A   Overcast
9:35 AM 17.6 °F 3.7 °F 10.4 °F 73% 30.23 in 10.0 mi NW 13.8 mph 17.3 mph N/A   Unknown
9:55 AM 17.6 °F 5.7 °F 10.4 °F 73% 30.23 in 10.0 mi WNW 10.4 mph 18.4 mph N/A   Unknown
10:15 AM 17.6 °F 4.3 °F 10.4 °F 73% 30.25 in 10.0 mi WNW 12.7 mph 16.1 mph N/A   Overcast
10:35 AM 17.6 °F 5.7 °F 10.4 °F 73% 30.25 in 10.0 mi NW 10.4 mph - N/A   Mostly Cloudy
10:55 AM 19.4 °F 7.9 °F 10.4 °F 68% 30.25 in 10.0 mi NW 10.4 mph 16.1 mph N/A   Scattered Clouds
11:15 AM 19.4 °F 7.2 °F 10.4 °F 68% 30.25 in 10.0 mi WNW 11.5 mph - N/A   Scattered Clouds
11:55 AM 19.4 °F 7.9 °F 10.4 °F 68% 30.23 in 10.0 mi NW 10.4 mph - N/A   Clear
12:15 PM 21.2 °F 10.1 °F 10.4 °F 63% 30.23 in 10.0 mi West 10.4 mph 17.3 mph N/A   Clear
12:35 PM 21.2 °F 9.5 °F 10.4 °F 63% 30.22 in 10.0 mi West 11.5 mph 16.1 mph N/A   Clear
12:55 PM 21.2 °F 10.1 °F 10.4 °F 63% 30.22 in 10.0 mi WNW 10.4 mph 17.3 mph N/A   Clear
1:15 PM 23.0 °F 11.7 °F 12.2 °F 63% 30.22 in 10.0 mi WNW 11.5 mph - N/A   Clear
1:35 PM 23.0 °F 11.7 °F 10.4 °F 59% 30.22 in 10.0 mi WNW 11.5 mph - N/A   Clear
1:55 PM 23.0 °F 11.1 °F 12.2 °F 63% 30.22 in 10.0 mi NW 12.7 mph 18.4 mph N/A   Clear
2:15 PM 24.8 °F 12.9 °F 12.2 °F 59% 30.23 in 10.0 mi WNW 13.8 mph - N/A   Unknown
2:35 PM 26.6 °F 16.2 °F 12.2 °F 55% 30.24 in 10.0 mi WNW 11.5 mph 16.1 mph N/A   Clear
2:55 PM 26.6 °F 16.2 °F 12.2 °F 55% 30.24 in 10.0 mi NW 11.5 mph - N/A   Clear
3:15 PM 26.6 °F 16.8 °F 12.2 °F 55% 30.24 in 10.0 mi NW 10.4 mph - N/A   Clear
3:35 PM 26.6 °F 16.8 °F 10.4 °F 51% 30.24 in 10.0 mi NW 10.4 mph - N/A   Clear
3:55 PM 26.6 °F 16.2 °F 10.4 °F 51% 30.25 in 10.0 mi West 11.5 mph - N/A   Clear
4:15 PM 26.6 °F 17.5 °F 10.4 °F 51% 30.25 in 10.0 mi WNW 9.2 mph 16.1 mph N/A   Clear
4:35 PM 26.6 °F 16.8 °F 10.4 °F 51% 30.27 in 10.0 mi WNW 10.4 mph - N/A   Unknown
5:15 PM 26.6 °F 19.1 °F 10.4 °F 51% 30.27 in 10.0 mi WNW 6.9 mph - N/A   Clear
5:35 PM 24.8 °F 17.9 °F 10.4 °F 54% 30.28 in 10.0 mi WNW 5.8 mph - N/A   Unknown
5:55 PM 24.8 °F 19.1 °F 10.4 °F 54% 30.29 in 10.0 mi WNW 4.6 mph - N/A   Clear
6:15 PM 23.0 °F 18.4 °F 10.4 °F 59% 30.29 in 10.0 mi WNW 3.5 mph - N/A   Clear
6:35 PM 23.0 °F 15.8 °F 8.6 °F 54% 30.29 in 10.0 mi NNW 5.8 mph - N/A   Clear
6:55 PM 23.0 °F 18.4 °F 10.4 °F 59% 30.29 in 10.0 mi NW 3.5 mph - N/A   Clear
7:15 PM 21.2 °F - 12.2 °F 68% 30.30 in 10.0 mi Calm Calm - N/A   Clear
7:35 PM 21.2 °F - 12.2 °F 68% 30.30 in 10.0 mi Calm Calm - N/A   Clear
7:55 PM 19.4 °F - 12.2 °F 74% 30.31 in 10.0 mi Calm Calm - N/A   Clear
8:15 PM 19.4 °F - 12.2 °F 74% 30.30 in 10.0 mi Calm Calm - N/A   Clear
8:35 PM 19.4 °F - 12.2 °F 74% 30.30 in 10.0 mi Calm Calm - N/A   Clear
8:55 PM 17.6 °F - 12.2 °F 79% 30.30 in 10.0 mi Calm Calm - N/A   Clear
9:15 PM 17.6 °F - 12.2 °F 79% 30.31 in 10.0 mi Calm Calm - N/A   Clear
9:35 PM 15.8 °F - 12.2 °F 86% 30.32 in 10.0 mi Calm Calm - N/A   Clear
9:55 PM 15.8 °F - 12.2 °F 86% 30.33 in 10.0 mi Calm Calm - N/A   Clear
10:55 PM 14.0 °F - 12.2 °F 93% 30.34 in 10.0 mi Calm Calm - N/A   Clear
11:35 PM 14.0 °F - 12.2 °F 93% 30.36 in 10.0 mi Calm Calm - N/A   Clear